Minot, ND

3:27 PM CST on February 14, 2016 (GMT -0600)
Minot International

Weather History for KMOT - October, 2014

Change the Weather History Date:

Monday, October 13, 2014

  Actual Average Record
Temperature  
Mean Temperature 53 °F 46 °F  
Max Temperature 65 °F 57 °F 87 °F (1934)
Min Temperature 41 °F 35 °F 7 °F (1917)
Degree Days  
Heating Degree Days 12 19  
Month to date heating degree days 242 215  
Since 1 July heating degree days 522 535  
Cooling Degree Days 0 0  
Month to date cooling degree days 0 0  
Year to date cooling degree days 341 444  
Growing Degree Days 3 (Base 50)    
Moisture  
Dew Point 34 °F    
Average Humidity 52    
Maximum Humidity 76    
Minimum Humidity 28    
Precipitation  
Precipitation 0.00 in 0.04 in 0.51 in (1951)
Month to date precipitation 0.18 0.57  
Year to date precipitation 15.67 15.47  
Sea Level Pressure  
Sea Level Pressure 29.96 in    
Wind  
Wind Speed 10 mph (West)    
Max Wind Speed 16 mph    
Max Gust Speed 22 mph    
Visibility 10 miles    
Events      
T = Trace of Precipitation, MM = Missing Value Source: NWS Daily Summary

Daily Weather History Graph

Daily Weather History Graph

Search for Another Location

Airport or City:

Trip Planner

Search our weather history database for the weather conditions in past years. The results will help you decide how hot, cold, wet, or windy it might be!

Date:

Astronomy

Oct. 13, 2014 Rise Set
Actual Time 8:01 AM CDT 6:59 PM CDT
Civil Twilight 7:30 AM CDT 7:31 PM CDT
Nautical Twilight 6:54 AM CDT 8:07 PM CDT
Astronomical Twilight 6:18 AM CDT 8:43 PM CDT
Moon 10:57 PM CDT (10/13) 1:32 PM CDT (10/13)
Length of Visible Light 12h 00m
Length of Day
10h 58m
Waning Gibbous, 70% of the Moon is Illuminated
Oct 13
Waning Gibbous
Oct 15
Last Quarter
Oct 23
New
Oct 30
First Quarter
Nov 6
Full

Hourly Weather History & Observations

Time (CDT) Temp. Windchill Dew Point Humidity Pressure Visibility Wind Dir Wind Speed Gust Speed Precip Events Conditions
12:54 AM 46.9 °F - 36.0 °F 66% 29.88 in 10.0 mi West 15.0 mph - N/A   Clear
1:54 AM 46.9 °F - 36.0 °F 66% 29.89 in 10.0 mi West 13.8 mph - N/A   Clear
2:54 AM 45.0 °F 38.2 °F 35.1 °F 68% 29.91 in 10.0 mi West 15.0 mph - N/A   Clear
3:54 AM 45.0 °F 38.5 °F 35.1 °F 68% 29.91 in 10.0 mi West 13.8 mph - N/A   Clear
4:54 AM 44.1 °F 37.1 °F 35.1 °F 71% 29.92 in 10.0 mi West 15.0 mph - N/A   Clear
5:54 AM 43.0 °F 36.0 °F 35.1 °F 74% 29.94 in 10.0 mi West 13.8 mph - N/A   Clear
6:54 AM 42.1 °F 35.2 °F 34.0 °F 73% 29.95 in 10.0 mi West 12.7 mph - N/A   Clear
7:54 AM 42.1 °F 35.7 °F 34.0 °F 73% 29.96 in 10.0 mi West 11.5 mph - N/A   Clear
8:54 AM 42.8 °F 38.0 °F 33.8 °F 70% 29.96 in 10.0 mi WSW 8.1 mph - N/A   Clear
9:54 AM 48.9 °F - 36.0 °F 61% 29.99 in 10.0 mi West 9.2 mph - N/A   Clear
10:54 AM 53.1 °F - 37.0 °F 55% 29.99 in 10.0 mi West 10.4 mph - N/A   Clear
11:54 AM 57.9 °F - 37.9 °F 47% 29.99 in 10.0 mi West 9.2 mph - N/A   Clear
12:54 PM 62.1 °F - 37.0 °F 39% 29.99 in 10.0 mi West 12.7 mph - N/A   Clear
1:54 PM 63.0 °F - 34.0 °F 34% 29.98 in 10.0 mi WNW 12.7 mph - N/A   Clear
2:54 PM 64.4 °F - 33.8 °F 32% 29.94 in 10.0 mi West 9.2 mph - N/A   Clear
3:54 PM 64.0 °F - 32.0 °F 30% 29.96 in 10.0 mi West 9.2 mph - N/A   Clear
4:54 PM 64.0 °F - 30.0 °F 28% 29.97 in 10.0 mi WNW 12.7 mph - N/A   Clear
5:54 PM 62.1 °F - 30.9 °F 31% 29.98 in 10.0 mi WNW 8.1 mph - N/A   Clear
6:54 PM 53.1 °F - 33.1 °F 47% 29.99 in 10.0 mi NW 4.6 mph - N/A   Clear
7:54 PM 46.9 °F - 32.0 °F 56% 29.99 in 10.0 mi Calm Calm - N/A   Clear
8:54 PM 46.9 °F - 33.1 °F 59% 30.00 in 10.0 mi SW 5.8 mph - N/A   Clear
9:54 PM 46.4 °F 41.5 °F 32.0 °F 57% 29.97 in 10.0 mi SW 10.4 mph - N/A   Clear
10:54 PM 45.0 °F 40.6 °F 32.0 °F 60% 30.00 in 10.0 mi SW 8.1 mph - N/A   Clear
11:54 PM 45.0 °F 42.6 °F 32.0 °F 60% 29.99 in 10.0 mi SSW 4.6 mph - N/A   Clear